Starlink 31638

operational
NORAD ID: 59489 Int'l Des: 2024-071 Owner: SPXS Country: US Constellation: starlink
LEOCIRCULAR

Starlink 31638について

説明を読み込み中...

リアルタイム位置

3D地球を読み込み中...

次回通過

高度履歴

Altitude vs Time

uPlot chart will show altitude changes over time

軌道要素

1 59489U 24071F 25259.02130453 .00004247 00000-0 16375-3 0 9992
2 59489 43.0043 246.0635 0001131 269.1970 90.8752 15.27583801 81490
Epoch: Sep 16, 2025 • Age: 14 hours

現在のステータス

高度 486.6 km
速度 7.63 km/s
衛星直下点 41.71°N, 94.23°E
打ち上げ日 Apr 13, 2024
運用期間 1.4 years
タイプ internet

技術仕様

分類 Payload
質量 730.00 kg
乾燥質量 700.00 kg
総質量 730.00 kg
長さ 0.30 m
直径 4.10 m
スパン 29.00 m
形状 Box + pan
製造者 SPXS
バスタイプ Starlink V2M
フェーズステータス In Orbit
所有者/国 SPXS/US

大規模コンステレーション

Loading constellations...